TimeCST,TemperatureF,Dew PointF,Humidity,Sea Level PressureIn,VisibilityMPH,Wind Direction,Wind SpeedMPH,Gust SpeedMPH,PrecipitationIn,Events,Conditions,WindDirDegrees,DateUTC
12:53 AM,55.0,42.1,62,30.01,10.0,ESE,6.9,-,N/A,,Clear,110,2014-01-13 06:53:00
1:53 AM,55.0,44.1,67,30.01,10.0,Calm,Calm,-,N/A,,Clear,0,2014-01-13 07:53:00
2:53 AM,55.0,46.9,74,30.05,10.0,SSW,8.1,-,N/A,,Clear,200,2014-01-13 08:53:00
3:32 AM,57.0,48.9,74,30.04,10.0,SSE,9.2,-,N/A,,Overcast,160,2014-01-13 09:32:00
3:45 AM,55.9,48.9,77,30.03,10.0,SE,8.1,-,0.00,Rain,Light Rain,140,2014-01-13 09:45:00
3:53 AM,55.9,50.0,80,30.04,10.0,South,6.9,-,0.01,Rain,Light Rain,170,2014-01-13 09:53:00
4:53 AM,55.0,51.1,86,29.96,10.0,ESE,6.9,-,0.02,Rain,Light Rain,110,2014-01-13 10:53:00
5:53 AM,57.9,55.9,93,29.94,10.0,SE,10.4,-,0.01,Rain,Light Rain,130,2014-01-13 11:53:00
6:53 AM,59.0,57.0,93,29.91,10.0,SE,11.5,26.5,0.02,Rain,Light Rain,140,2014-01-13 12:53:00
7:53 AM,61.0,59.0,93,29.97,5.0,South,6.9,-,0.09,Rain,Rain,190,2014-01-13 13:53:00
8:53 AM,61.0,60.1,97,29.96,5.0,SSE,11.5,-,0.07,Rain,Light Rain,150,2014-01-13 14:53:00
9:53 AM,62.1,61.0,96,29.95,5.0,South,6.9,-,0.09,Rain,Light Rain,190,2014-01-13 15:53:00
10:00 AM,62.1,61.0,96,29.95,7.0,South,8.1,-,0.01,Rain,Light Rain,190,2014-01-13 16:00:00
10:08 AM,62.1,60.1,93,29.94,7.0,South,9.2,-,0.03,Rain,Rain,180,2014-01-13 16:08:00
10:12 AM,62.1,60.1,93,29.94,1.8,South,11.5,-,0.03,Rain-Thunderstorm,Thunderstorms and Rain,180,2014-01-13 16:12:00
10:21 AM,62.1,60.1,93,29.91,3.0,SSE,10.4,-,0.05,Rain,Rain,160,2014-01-13 16:21:00
10:53 AM,63.0,61.0,93,29.93,10.0,SSW,11.5,18.4,0.08,,Overcast,200,2014-01-13 16:53:00
11:26 AM,63.0,61.0,93,29.92,10.0,SSW,11.5,-,N/A,,Overcast,200,2014-01-13 17:26:00
11:53 AM,63.0,61.0,93,29.89,10.0,South,9.2,-,N/A,,Overcast,180,2014-01-13 17:53:00
12:53 PM,63.0,61.0,93,29.86,10.0,South,15.0,-,N/A,,Overcast,190,2014-01-13 18:53:00
1:53 PM,64.0,62.1,93,29.84,5.0,SW,12.7,-,N/A,,Overcast,230,2014-01-13 19:53:00
2:53 PM,64.9,62.1,90,29.84,8.0,SSW,9.2,-,0.00,,Overcast,210,2014-01-13 20:53:00
3:41 PM,66.0,62.1,87,29.84,10.0,SW,6.9,-,N/A,,Overcast,230,2014-01-13 21:41:00
3:53 PM,66.0,62.1,87,29.85,10.0,SW,5.8,-,N/A,,Overcast,230,2014-01-13 21:53:00
4:28 PM,66.0,62.1,87,29.85,10.0,SW,5.8,-,N/A,,Scattered Clouds,220,2014-01-13 22:28:00
4:53 PM,64.0,61.0,90,29.86,10.0,WSW,4.6,-,N/A,,Scattered Clouds,240,2014-01-13 22:53:00
5:53 PM,61.0,60.1,97,29.88,5.0,Calm,Calm,-,N/A,,Scattered Clouds,0,2014-01-13 23:53:00
6:53 PM,59.0,57.9,96,29.91,10.0,Variable,4.6,-,N/A,,Scattered Clouds,0,2014-01-14 00:53:00
7:53 PM,61.0,45.0,56,29.94,10.0,WNW,10.4,-,N/A,,Clear,300,2014-01-14 01:53:00
8:53 PM,59.0,39.0,48,29.98,10.0,NW,5.8,-,N/A,,Clear,310,2014-01-14 02:53:00
9:53 PM,55.9,37.9,51,30.01,10.0,WNW,6.9,-,N/A,,Clear,300,2014-01-14 03:53:00
10:53 PM,54.0,37.0,53,30.03,10.0,WNW,6.9,-,N/A,,Clear,300,2014-01-14 04:53:00
11:53 PM,53.1,35.1,50,30.04,10.0,WNW,5.8,-,N/A,,Clear,300,2014-01-14 05:53:00